STARLINK-1356 (45564 NORAD) Tracking and Keplerian Element Data

This shows tracking and keplerian element data for the satellite.

Feedback or suggestion? Click here.




ElementValue
Catalog45564
NameSTARLINK-1356
Epoch Orbit1268
Epoch Day190.25001157
Epoch Year2020
RAAN24.0472
Inclination52.9996
Eccentricity0.0001268
Argument of Perigee80.3792
Mean Anonmoly141.408
Mean Motion15.50763744
Decay Rate-0.01188302
L11 45564U 20025AK 20190.25001157 -.01188302 00000-0 -22239-1 0 9990
L22 45564 52.9996 24.0472 0001268 80.3792 141.4080 15.50763744 12688

Live tracking and technical data element details for STARLINK-1356 (NORAD 45564). STARLINK-1356 can be tracked NOW for your location showing map with azimuth and elevation plus other details from your city location.

Track the satellite on the map from your city or location and see movement details for azimuth, elevation, latitude, longitude, range, height, and movement on the map or in text.







IsCatalogInMostPopularTable: catalog: 45564, numindb: 14
Update: records affected: 1



GetName: 45564 STARLINK-1356

Hit Count: updated at: Thu, 09 Jul 2020 00:40:28 GMT